Temperature
27 28 29 29 28 28 28 28 27 26 25 26 25 24 23 22 22 22 22 21 20 20 19 18 18 18 18 18 18 18 18 18 17 17 17 16 16 16 15 15 15 15 15 14
28 28 29 28 28 27 27 27 27 25 25 25 25 24 23 22 22 21 21 21 20 20 19 18 18 18 18 18 18 18 18 17 17 17 17 16 16 15 15 15 15 14 14 14
28 29 28 28 28 27 27 27 27 26 25 25 25 24 23 23 22 21 21 21 21 20 20 19 18 18 18 18 18 17 17 17 17 17 16 16 15 15 15 14 14 14 13 13
29 29 28 28 28 27 27 27 26 25 25 25 25 24 24 23 23 22 22 21 21 21 21 20 19 19 18 18 17 17 17 17 17 16 16 15 15 15 15 14 14 13 13 12
29 28 28 28 28 27 26 26 26 26 26 26 25 25 25 24 23 23 23 22 22 22 21 21 20 19 19 18 18 17 17 17 16 16 15 15 15 14 14 14 13 13 13 12
29 28 28 28 27 27 26 26 25 26 27 26 25 25 25 25 24 25 24 23 23 22 22 21 20 19 19 18 18 17 17 16 16 16 15 15 14 14 13 13 13 13 13 12
28 28 28 28 27 26 26 27 26 26 26 26 25 25 25 25 25 25 25 24 23 23 22 21 20 20 19 18 18 17 17 16 16 15 15 14 13 13 13 12 13 12 12 12
28 28 28 28 28 28 27 27 26 26 26 26 25 26 26 26 25 24 24 24 24 23 22 21 21 20 19 18 18 17 16 16 15 15 14 14 13 13 13 12 12 12 12 12
28 28 28 28 28 28 28 28 28 27 27 26 26 26 26 26 25 25 25 24 24 23 22 21 20 20 19 18 17 17 16 15 15 14 13 13 12 12 12 11 11 11 11 11
29 28 28 28 28 27 28 28 27 27 26 26 26 26 27 26 26 26 26 25 24 23 22 21 20 19 18 18 17 16 16 15 14 13 13 13 12 12 11 11 11 11 10 10
29 28 28 28 28 28 27 27 27 27 27 26 26 27 28 27 27 27 26 25 25 24 22 21 20 19 18 17 17 16 15 14 14 13 13 12 12 11 11 11 10 10 10 10
28 28 28 28 28 28 28 28 27 26 26 26 26 27 28 28 28 27 27 25 24 23 22 21 19 18 18 17 16 16 15 14 13 13 12 12 12 11 11 11 10 10 10 10
28 27 27 27 27 27 28 28 28 28 27 27 26 27 27 27 27 26 26 25 23 22 21 20 19 18 18 17 16 15 15 14 14 13 12 12 11 11 11 10 10 10 10 10
27 27 27 27 27 28 28 27 27 27 27 27 27 27 27 27 27 26 25 24 23 21 20 20 19 18 17 17 16 15 15 14 13 13 12 12 11 11 11 10 10 10 10 9
27 27 28 28 28 28 28 28 27 27 27 27 27 27 28 28 27 26 25 23 22 21 20 19 19 18 17 17 16 15 14 14 13 12 12 12 11 11 10 10 10 10 10 9
26 27 27 27 28 28 27 28 28 27 27 27 27 27 28 26 25 24 24 23 22 21 21 20 19 18 17 17 16 15 14 13 13 12 12 12 11 11 10 10 10 10 9 9
27 26 26 27 28 27 27 28 28 28 28 27 27 28 27 26 25 24 23 23 22 22 21 20 19 18 17 17 16 15 14 13 13 12 12 11 11 11 10 10 10 10 9 9
26 26 26 27 26 25 27 29 28 28 28 28 28 27 27 26 25 24 23 23 22 22 21 20 19 18 17 17 16 15 14 13 13 12 12 11 11 10 10 10 10 9 9 9
25 25 26 26 26 26 28 28 28 27 27 28 28 27 27 25 24 24 23 22 22 21 21 20 19 18 17 17 16 15 14 13 13 12 12 11 11 10 10 10 10 10 9 9
23 24 26 26 25 25 27 28 27 27 27 28 28 27 26 25 26 26 24 23 22 21 20 19 19 18 17 16 16 15 14 13 13 12 12 11 11 10 10 10 10 10 9 9
25 24 25 25 25 26 27 27 26 26 26 27 27 27 26 26 26 25 24 23 22 21 20 19 19 18 17 16 16 15 14 14 13 12 12 11 11 10 10 10 10 10 9 9
26 26 25 25 25 25 26 26 26 25 25 25 26 26 25 25 25 24 23 22 21 21 20 19 19 18 17 16 16 15 14 13 13 12 11 11 10 10 10 10 10 9 9 9
26 26 26 26 26 24 24 24 23 22 23 23 24 24 24 24 24 23 23 22 21 21 20 19 19 18 17 16 16 15 14 13 13 12 12 11 11 10 10 10 10 10 9 9
26 24 25 25 25 24 22 21 20 20 21 21 22 22 23 23 23 22 22 21 20 20 20 19 18 18 17 16 16 15 14 14 13 12 12 11 11 11 10 10 10 10 10 10
23 24 24 24 24 23 22 19 18 19 19 20 20 21 21 21 21 21 21 20 20 19 19 18 18 17 17 16 15 15 14 14 13 13 12 11 11 11 10 10 10 10 10 9
21 21 22 23 20 21 19 17 17 18 18 18 19 19 19 20 20 20 20 19 19 18 18 18 17 17 17 16 15 15 14 14 13 12 12 11 11 11 11 11 11 11 10 10
Wind_Speed
5 7 6 5 6 7 7 7 4 2 1 3 4 5 7 6 6 6 7 7 7 7 8 7 7 6 6 6 6 5 5 5 4 3 3 2 2 1 1 1 0 1 2 2
7 6 4 4 4 5 6 5 1 3 1 2 3 5 6 6 6 5 6 7 8 8 8 8 8 7 7 7 6 6 6 5 5 3 2 1 2 2 2 1 0 1 2 4
9 5 1 4 4 4 4 4 2 2 4 3 4 5 6 7 6 6 6 7 8 9 9 9 9 8 8 7 7 6 5 5 5 4 4 3 3 4 3 3 3 2 4 5
6 3 4 5 4 5 3 1 2 4 5 2 3 2 6 7 9 9 9 9 10 10 10 10 10 9 9 8 8 7 7 6 6 6 5 5 5 5 4 4 4 4 5 6
4 2 4 4 2 3 2 2 4 4 3 2 2 3 4 7 9 11 11 11 11 11 10 10 10 9 9 8 8 7 7 7 6 6 5 5 6 5 5 5 5 6 6 6
4 2 2 1 2 3 6 5 5 6 6 1 1 3 3 5 8 10 12 12 11 11 10 9 8 8 8 8 7 7 7 6 6 6 5 5 6 6 7 7 7 7 7 6
4 4 4 4 5 6 6 5 4 4 2 2 2 2 3 5 6 8 11 12 11 10 10 9 8 8 8 8 7 6 6 6 5 5 5 5 5 6 7 8 7 8 8 7
4 4 5 5 4 2 4 5 5 5 5 2 3 1 4 6 6 7 8 9 10 10 9 8 7 7 7 6 6 6 5 5 4 4 4 4 5 6 6 6 8 9 8 8
4 1 4 2 2 3 2 3 4 4 3 2 2 2 4 7 8 9 10 10 10 9 9 8 7 7 7 6 5 5 4 4 4 4 4 4 5 6 7 7 8 8 7 8
3 4 4 5 5 1 3 2 2 4 5 3 1 1 2 7 10 11 12 12 11 10 9 8 8 7 6 6 5 4 4 4 4 5 5 5 5 6 7 8 8 9 9 9
3 5 4 6 6 3 4 4 3 4 4 5 3 2 3 5 7 10 11 11 10 10 10 9 8 8 7 6 5 5 4 5 5 5 5 6 6 7 8 8 9 9 9 10
2 4 4 3 1 2 5 4 4 5 4 4 6 1 6 5 6 7 8 9 9 9 9 9 9 8 7 6 5 5 5 5 5 5 6 7 7 8 9 9 9 9 10 10
3 4 5 5 6 6 5 4 5 6 7 7 8 2 8 6 7 7 8 8 9 10 10 10 9 8 7 6 5 4 5 5 5 5 6 7 8 9 9 9 10 10 10 11
4 5 7 7 4 2 5 6 7 8 9 9 9 8 3 5 7 8 8 8 10 11 10 10 9 8 7 6 5 5 5 5 5 6 7 8 8 9 9 10 10 10 11 11
5 8 8 8 7 7 9 10 9 11 12 12 10 9 7 4 5 6 7 8 9 10 11 11 9 8 7 6 6 5 5 5 5 6 8 8 8 9 9 10 10 10 11 12
5 9 10 11 10 9 12 12 12 11 11 11 10 9 3 1 4 6 8 9 10 10 11 10 9 8 8 7 6 5 5 5 5 7 8 8 9 9 10 10 10 11 11 11
7 8 11 13 10 10 12 9 8 8 7 7 8 4 2 3 5 7 8 9 9 9 9 10 9 8 7 6 6 5 5 5 6 7 8 9 9 9 10 10 11 11 11 12
8 10 9 12 9 12 6 1 4 7 7 6 6 4 3 3 4 6 7 8 9 8 9 9 8 8 7 6 6 5 5 6 6 7 8 9 9 10 10 10 11 11 11 11
7 8 8 10 11 11 7 5 5 6 7 5 6 5 4 4 5 7 9 10 9 8 9 8 8 7 6 6 6 5 6 6 7 8 8 9 9 10 10 11 11 11 11 12
5 7 8 8 9 9 3 3 3 4 7 3 5 6 6 7 7 5 7 10 10 9 9 8 8 7 7 6 6 6 7 7 8 8 8 9 9 10 11 11 12 11 11 12
6 6 9 10 10 8 3 4 5 6 4 3 4 6 7 9 8 1 6 9 10 10 11 10 9 8 8 7 6 7 8 8 8 8 8 9 9 10 11 11 11 11 11 12
8 6 6 6 8 3 6 2 2 6 8 6 6 6 8 10 9 6 7 8 10 11 12 11 10 9 8 8 8 8 8 8 7 8 9 10 10 10 10 11 11 11 11 12
7 5 4 4 3 5 5 5 7 9 10 10 9 9 8 10 10 10 10 10 10 11 11 11 11 10 9 8 9 9 8 7 8 9 10 10 10 10 10 11 11 11 11 11
3 1 3 5 2 3 7 8 10 11 11 11 10 9 8 9 10 9 9 9 9 10 10 10 10 10 9 9 9 9 9 8 8 10 10 10 10 11 10 9 10 10 10 10
4 3 5 8 4 3 6 13 14 13 12 11 9 7 6 6 7 7 7 7 7 7 8 8 9 9 9 8 9 9 9 8 9 10 10 10 11 10 10 10 9 11 10 9
3 4 5 4 6 6 7 12 13 12 12 12 11 10 8 6 6 6 5 4 4 5 6 7 7 8 7 7 8 8 8 9 10 10 10 9 9 9 9 10 10 10 12 11
Wind_Direction
225 254 283 322 309 304 302 298 308 60 76 232 196 164 158 158 173 175 165 155 149 149 148 146 149 152 149 144 145 151 150 148 166 172 186 192 202 225 233 228 116 288 321 326
243 263 308 299 278 270 272 279 287 125 141 222 164 157 156 169 179 182 171 163 158 162 160 160 166 169 166 163 165 171 176 176 191 177 204 236 268 257 254 265 195 292 319 313
275 326 342 260 259 267 271 296 312 166 154 166 186 178 178 183 186 190 183 174 173 178 174 173 181 184 181 180 185 188 187 193 204 201 215 215 228 246 243 257 258 291 303 301
271 287 259 268 274 284 300 12 200 182 208 158 240 229 174 183 192 195 190 187 183 187 186 186 188 192 195 196 196 200 200 204 206 215 233 248 269 284 293 289 292 293 285 292
284 270 266 272 326 285 36 143 186 205 235 219 224 278 138 177 192 193 191 192 189 190 191 195 197 198 201 202 203 202 203 208 211 223 230 247 267 282 285 287 283 287 285 279
276 240 268 38 87 136 144 163 182 214 232 251 26 302 116 164 185 182 185 189 190 192 194 198 202 202 206 205 206 207 205 210 213 221 233 252 274 285 293 290 294 288 287 283
213 184 164 168 157 161 212 256 254 223 219 63 99 289 74 129 164 176 180 183 188 191 195 198 202 204 205 207 206 206 202 209 214 223 237 252 269 277 274 284 291 291 292 290
257 203 175 199 251 231 231 289 326 332 352 43 149 17 102 140 161 179 184 184 188 193 197 200 200 199 197 191 189 193 197 205 212 224 240 257 268 277 285 290 297 294 293 298
286 269 133 173 222 255 229 273 331 298 296 306 82 107 152 169 184 189 191 192 194 194 191 190 185 181 176 175 178 184 190 204 221 236 247 258 269 284 291 288 277 285 291 290
293 275 175 156 166 150 303 279 262 303 328 328 82 169 125 176 190 191 195 198 196 191 187 178 170 168 165 168 167 179 198 217 234 242 255 266 273 276 279 283 293 292 290 288
279 272 202 200 232 228 188 213 263 295 315 310 333 51 100 175 189 196 199 200 197 192 184 175 170 166 167 172 179 194 207 223 237 253 261 272 276 283 284 283 285 287 286 287
248 280 276 226 143 285 257 257 246 280 285 282 298 338 131 180 194 203 206 196 192 186 178 172 170 172 179 188 199 210 224 236 248 260 264 267 275 281 284 286 289 288 286 285
187 253 263 200 186 193 226 233 255 274 279 272 280 302 136 182 211 210 210 195 184 180 176 173 176 184 191 200 210 224 239 250 260 266 268 272 279 284 285 289 290 288 287 287
233 261 282 301 317 289 254 236 239 259 268 274 274 289 240 219 216 210 205 198 188 181 181 184 187 194 199 205 214 231 249 259 265 274 277 281 285 288 288 290 290 289 289 289
235 258 262 274 277 274 279 277 261 256 272 282 287 289 292 263 226 207 196 188 187 187 190 194 198 198 202 210 218 233 250 257 269 278 283 287 289 289 287 288 289 290 290 289
234 270 271 267 263 264 272 273 271 263 262 267 275 282 299 168 184 187 190 192 198 201 201 200 202 203 208 215 223 233 248 260 267 276 284 290 291 289 289 291 291 292 292 292
240 254 265 269 269 267 265 264 264 258 250 260 273 300 135 189 198 201 199 204 212 212 206 204 205 207 210 215 220 233 247 260 268 276 284 289 290 290 292 295 297 297 297 295
246 248 257 264 262 258 272 248 263 260 257 253 270 275 221 223 210 206 207 212 218 217 211 206 206 205 206 208 214 229 249 258 268 277 285 289 291 291 293 295 297 298 297 297
232 233 249 256 252 254 252 211 221 242 263 249 250 243 206 186 214 223 209 214 220 217 210 205 205 204 203 209 217 230 251 262 271 279 286 291 293 293 293 296 300 301 298 296
194 223 243 243 258 262 269 128 173 240 259 221 215 225 204 194 252 263 179 197 209 207 199 197 196 199 202 212 217 235 255 264 273 283 288 291 290 288 291 295 298 298 296 293
206 211 236 245 253 258 49 120 180 241 340 28 236 235 216 221 257 303 166 190 201 201 197 195 198 204 208 208 214 237 258 268 278 285 286 286 286 286 286 290 291 293 293 295
253 242 230 242 250 258 67 160 250 349 351 330 300 275 250 245 247 226 207 202 203 204 203 199 202 208 208 207 215 238 256 268 277 281 282 284 286 287 290 290 289 290 292 292
246 289 285 272 321 48 20 348 345 339 324 319 311 295 276 263 255 242 230 221 215 211 208 205 207 211 210 210 219 240 256 264 270 274 278 282 285 284 284 286 288 289 288 291
198 27 269 265 257 28 24 18 5 352 335 324 316 305 286 268 265 257 244 233 225 218 210 206 209 215 217 216 222 236 250 255 261 268 274 278 280 282 283 283 285 290 296 297
341 287 271 263 299 321 30 15 1 355 353 351 346 338 321 297 285 271 256 245 234 221 212 207 211 219 224 224 229 237 242 246 256 264 270 275 277 280 285 282 282 286 289 292
359 322 296 325 15 346 360 4 3 8 11 9 5 6 6 352 331 315 293 275 250 224 204 203 211 223 231 233 239 244 243 242 252 262 266 273 277 282 283 286 287 258 250 254
Height
1515 1512 1506 1504 1504 1504 1505 1505 1506 1510 1513 1513 1513 1517 1521 1526 1528 1529 1530 1533 1535 1538 1540 1541 1542 1543 1544 1545 1546 1547 1548 1548 1549 1550 1551 1551 1551 1550 1549 1548 1546 1546 1545 1544
1510 1506 1503 1504 1505 1505 1505 1506 1508 1513 1514 1513 1515 1519 1521 1525 1527 1529 1530 1533 1535 1538 1539 1540 1542 1543 1544 1545 1546 1547 1547 1548 1549 1549 1549 1549 1549 1548 1548 1546 1544 1543 1542 1541
1507 1503 1504 1504 1504 1505 1504 1505 1507 1512 1514 1514 1515 1520 1521 1523 1526 1529 1530 1531 1534 1536 1538 1539 1541 1543 1544 1545 1545 1546 1546 1547 1547 1547 1548 1547 1546 1546 1546 1544 1543 1541 1539 1538
1502 1502 1504 1502 1502 1504 1505 1505 1507 1511 1512 1512 1515 1521 1518 1518 1522 1525 1527 1530 1532 1534 1536 1538 1540 1542 1543 1544 1544 1545 1545 1545 1545 1545 1546 1546 1545 1545 1544 1542 1541 1539 1537 1535
1499 1501 1502 1503 1503 1503 1506 1506 1506 1507 1508 1510 1511 1514 1515 1516 1519 1520 1524 1527 1529 1532 1534 1537 1538 1540 1541 1542 1543 1543 1543 1543 1543 1543 1542 1542 1542 1541 1541 1539 1537 1535 1535 1532
1499 1501 1501 1501 1503 1504 1507 1507 1508 1506 1503 1514 1513 1514 1515 1511 1513 1515 1519 1523 1527 1529 1532 1534 1536 1537 1538 1540 1540 1541 1541 1540 1540 1540 1539 1539 1538 1537 1537 1535 1535 1533 1532 1530
1499 1499 1500 1502 1503 1506 1505 1506 1510 1511 1511 1514 1510 1511 1511 1507 1509 1512 1515 1520 1524 1527 1529 1531 1533 1534 1535 1536 1537 1538 1537 1537 1537 1536 1536 1535 1534 1534 1533 1532 1531 1530 1529 1527
1502 1502 1497 1498 1498 1499 1501 1502 1513 1521 1516 1508 1509 1510 1505 1505 1509 1512 1515 1517 1521 1524 1526 1528 1530 1531 1533 1534 1534 1535 1535 1534 1534 1533 1533 1532 1531 1531 1531 1529 1527 1526 1525 1523
1498 1501 1496 1497 1498 1497 1499 1498 1495 1502 1505 1508 1506 1505 1501 1504 1508 1510 1513 1515 1518 1521 1523 1525 1527 1529 1530 1531 1532 1532 1532 1531 1531 1531 1530 1529 1528 1527 1526 1524 1523 1522 1520 1519
1493 1501 1494 1496 1498 1500 1497 1495 1500 1502 1516 1516 1510 1506 1503 1501 1503 1505 1508 1511 1514 1518 1520 1523 1525 1526 1527 1528 1529 1529 1529 1528 1528 1528 1527 1527 1525 1524 1522 1521 1519 1517 1515 1513
1492 1499 1496 1495 1496 1494 1500 1500 1499 1498 1502 1512 1514 1506 1490 1495 1497 1500 1503 1507 1511 1514 1517 1520 1522 1524 1525 1526 1526 1526 1526 1525 1525 1525 1523 1522 1521 1520 1519 1517 1515 1513 1511 1509
1494 1493 1496 1493 1492 1492 1492 1493 1497 1506 1506 1504 1505 1502 1488 1491 1494 1497 1500 1504 1508 1512 1515 1517 1519 1521 1522 1523 1524 1524 1523 1523 1522 1521 1520 1519 1517 1516 1514 1513 1511 1509 1507 1505
1494 1497 1503 1500 1499 1495 1493 1492 1492 1493 1496 1501 1504 1499 1490 1492 1494 1496 1499 1502 1506 1510 1512 1515 1517 1518 1520 1520 1521 1521 1520 1520 1519 1518 1517 1515 1514 1512 1511 1509 1507 1505 1502 1500
1494 1494 1499 1504 1496 1489 1491 1491 1492 1494 1497 1496 1495 1491 1487 1488 1490 1494 1497 1501 1504 1507 1510 1512 1514 1515 1516 1517 1517 1517 1517 1516 1516 1515 1513 1512 1510 1509 1507 1505 1502 1500 1498 1495
1493 1492 1490 1487 1485 1487 1488 1488 1487 1491 1490 1493 1488 1486 1483 1484 1487 1491 1495 1499 1502 1505 1507 1509 1511 1512 1513 1514 1514 1514 1513 1513 1512 1511 1510 1509 1507 1505 1503 1501 1498 1496 1493 1491
1492 1492 1489 1489 1483 1484 1487 1484 1483 1483 1484 1485 1484 1484 1480 1485 1488 1491 1494 1497 1499 1502 1504 1506 1507 1509 1510 1510 1510 1510 1510 1509 1508 1507 1506 1505 1503 1501 1499 1497 1494 1492 1489 1486
1487 1491 1493 1491 1481 1485 1488 1479 1478 1479 1478 1480 1482 1480 1481 1484 1487 1489 1492 1494 1496 1498 1500 1502 1504 1505 1506 1507 1507 1507 1506 1506 1505 1504 1503 1501 1499 1497 1495 1493 1491 1488 1484 1481
1487 1489 1488 1487 1488 1501 1480 1470 1473 1475 1475 1475 1477 1478 1481 1483 1486 1488 1490 1492 1493 1495 1497 1499 1501 1502 1503 1503 1503 1503 1503 1502 1501 1500 1499 1498 1495 1493 1491 1489 1486 1483 1480 1477
1486 1487 1485 1485 1488 1484 1472 1469 1471 1475 1475 1471 1473 1476 1479 1482 1484 1485 1486 1488 1490 1492 1494 1496 1497 1499 1499 1500 1500 1500 1499 1499 1498 1497 1495 1494 1491 1489 1487 1484 1481 1478 1475 1472
1486 1485 1483 1483 1490 1491 1473 1466 1470 1473 1476 1468 1472 1474 1477 1481 1480 1477 1481 1484 1487 1489 1490 1492 1493 1495 1495 1496 1496 1496 1496 1495 1494 1493 1491 1489 1487 1484 1482 1479 1476 1474 1470 1467
1481 1484 1482 1481 1484 1474 1466 1469 1472 1480 1477 1470 1471 1472 1474 1476 1477 1478 1479 1481 1483 1485 1486 1488 1489 1490 1491 1492 1492 1492 1492 1491 1490 1489 1486 1484 1482 1480 1477 1475 1472 1469 1466 1462
1473 1474 1479 1478 1483 1479 1472 1470 1472 1475 1473 1472 1472 1472 1473 1473 1474 1476 1477 1478 1479 1481 1482 1484 1485 1486 1487 1488 1488 1488 1488 1487 1485 1484 1482 1480 1478 1476 1474 1470 1467 1464 1461 1457
1468 1469 1467 1471 1474 1475 1474 1475 1477 1476 1475 1474 1473 1471 1471 1471 1472 1472 1473 1474 1475 1476 1478 1479 1480 1482 1483 1483 1483 1483 1483 1482 1480 1479 1477 1475 1473 1471 1468 1466 1463 1460 1457 1454
1467 1473 1471 1472 1469 1474 1476 1477 1477 1476 1475 1473 1471 1469 1468 1468 1468 1468 1469 1470 1471 1472 1473 1474 1476 1477 1478 1479 1479 1479 1478 1477 1475 1474 1472 1470 1468 1466 1464 1461 1459 1456 1453 1450
1474 1473 1471 1472 1473 1475 1476 1479 1478 1476 1473 1471 1469 1467 1466 1465 1464 1465 1465 1466 1466 1467 1468 1470 1471 1472 1474 1474 1474 1474 1473 1472 1471 1469 1467 1466 1464 1462 1459 1457 1454 1451 1448 1445
1479 1478 1476 1475 1481 1480 1482 1481 1479 1476 1473 1470 1468 1466 1464 1463 1462 1462 1463 1463 1463 1463 1463 1464 1466 1467 1469 1469 1469 1469 1468 1467 1466 1464 1463 1462 1460 1457 1455 1452 1449 1446 1443 1439